Vancouver, WA

5:42 PM PST on January 19, 2018 (GMT -0800)
Pearson

Weather History for KVUO - April, 2014

Change the Weather History Date:

Sunday, April 27, 2014

  Actual Average Record
Temperature  
Mean Temperature 50 °F 54 °F  
Max Temperature 56 °F 64 °F 90 °F (1926)
Min Temperature 43 °F 44 °F 30 °F (1984)
Degree Days  
Heating Degree Days 15    
Month to date heating degree days 345  
Since 1 July heating degree days 4327  
Cooling Degree Days 0    
Month to date cooling degree days 0  
Year to date cooling degree days 0  
Moisture  
Dew Point 40 °F    
Average Humidity 70    
Maximum Humidity 89    
Minimum Humidity 50    
Precipitation  
Precipitation 0.18 in 0.08 in 1.38 in (1962)
Month to date precipitation 3.14 2.76  
Year to date precipitation 16.55 15.86  
Sea Level Pressure  
Sea Level Pressure 29.94 in    
Wind  
Wind Speed 5 mph (WSW)    
Max Wind Speed 21 mph    
Max Gust Speed 30 mph    
Visibility 9 miles    
Events Rain    
T = Trace of Precipitation, MM = Missing Value Source: NWS Daily Summary

Daily Weather History Graph

Daily Weather History Graph

Search for Another Location

Airport or City:

Trip Planner

Search our weather history database for the weather conditions in past years. The results will help you decide how hot, cold, wet, or windy it might be!

Date:

Astronomy

Apr. 27, 2014 Rise Set
Actual Time 6:04 AM PDT 8:12 PM PDT
Civil Twilight 5:32 AM PDT 8:45 PM PDT
Nautical Twilight 4:52 AM PDT 9:25 PM PDT
Astronomical Twilight 4:08 AM PDT 10:10 PM PDT
Moon 5:14 AM PDT (4/27) 6:48 PM PDT (4/27)
Length of Visible Light 15h 13m
Length of Day
14h 08m
Waning Crescent, 3% of the Moon is Illuminated
Apr 27
Waning Crescent
Apr 28
New
May 6
First Quarter
May 14
Full
May 21
Last Quarter

Hourly Weather History & Observations

Time (PDT) Temp. Windchill Dew Point Humidity Pressure Visibility Wind Dir Wind Speed Gust Speed Precip Events Conditions
12:53 AM 48.0 °F - 43.0 °F 83% 29.75 in 10.0 mi South 6.9 mph - 0.03 in Rain Light Rain
1:44 AM 46.9 °F - 42.1 °F 83% 29.77 in 8.0 mi Variable 4.6 mph - 0.01 in Rain Light Rain
2:53 AM 46.9 °F - 42.1 °F 83% 29.80 in 10.0 mi WSW 3.5 mph - 0.00 in Rain Light Rain
3:53 AM 46.0 °F - 41.0 °F 83% 29.81 in 10.0 mi Calm Calm - 0.01 in   Scattered Clouds
4:53 AM 46.9 °F - 42.1 °F 83% 29.83 in 10.0 mi Calm Calm - 0.01 in   Overcast
5:53 AM 46.0 °F - 41.0 °F 83% 29.84 in 10.0 mi Calm Calm - 0.00 in   Mostly Cloudy
6:53 AM 44.1 °F - 41.0 °F 89% 29.86 in 10.0 mi Calm Calm - N/A   Scattered Clouds
7:53 AM 46.0 °F 44.8 °F 42.1 °F 86% 29.89 in 4.0 mi Variable 3.5 mph - 0.02 in Rain Light Rain
8:09 AM 46.0 °F 43.9 °F 42.1 °F 86% 29.90 in 3.0 mi WSW 4.6 mph - 0.04 in Rain Rain
8:28 AM 46.9 °F - 42.1 °F 83% 29.89 in 10.0 mi SSW 4.6 mph - 0.04 in   Scattered Clouds
8:53 AM 46.0 °F 42.5 °F 39.9 °F 79% 29.90 in 10.0 mi SSW 6.9 mph - 0.04 in   Scattered Clouds
9:53 AM 48.0 °F - 41.0 °F 77% 29.92 in 10.0 mi SSW 5.8 mph - N/A   Overcast
10:53 AM 50.0 °F - 41.0 °F 71% 29.93 in 10.0 mi Variable 5.8 mph - N/A   Mostly Cloudy
11:53 AM 54.0 °F - 39.9 °F 59% 29.94 in 10.0 mi SSW 5.8 mph - N/A   Scattered Clouds
1:53 PM 51.1 °F - 41.0 °F 68% 29.97 in 10.0 mi Variable 3.5 mph - 0.00 in   Mostly Cloudy
2:53 PM 50.0 °F - 42.1 °F 74% 29.99 in 10.0 mi Variable 5.8 mph - 0.05 in Rain Light Rain
3:53 PM 55.0 °F - 39.9 °F 57% 29.99 in 10.0 mi West 12.7 mph 19.6 mph 0.00 in Rain Light Rain
4:53 PM 55.0 °F - 37.9 °F 53% 30.00 in 10.0 mi West 9.2 mph - 0.00 in   Scattered Clouds
5:53 PM 53.1 °F - 37.0 °F 55% 30.03 in 10.0 mi West 12.7 mph - N/A   Overcast
6:53 PM 53.1 °F - 36.0 °F 52% 30.05 in 10.0 mi West 9.2 mph 18.4 mph N/A   Mostly Cloudy
7:53 PM 51.1 °F - 36.0 °F 56% 30.08 in 10.0 mi West 8.1 mph - N/A   Mostly Cloudy
8:53 PM 48.9 °F - 37.0 °F 64% 30.10 in 10.0 mi SW 4.6 mph - N/A   Mostly Cloudy
9:53 PM 48.9 °F - 39.0 °F 69% 30.14 in 10.0 mi WSW 4.6 mph - 0.00 in   Overcast
11:53 PM 46.0 °F - 39.9 °F 79% 30.18 in 10.0 mi Calm Calm - N/A   Overcast